Carnival Splendor — 3EUS — position and weather

sailwx.info

Track history (hours):
 
Tides and Currents Weather Stations Pressure Air Temp Water Temp Dewpoint Dewpoint Depression Visibility Wind Speed Wind Dir Waves Ship Positions

Carnival Splendor

Last reported at 2016-May-27 02:09 UTC. Time now 2016-May-31 16:11 UTC.
Position N 26°12' W 079°15'.

Length 289 m; draft 8.3 m.

Type: Ship. MMSI: 372808000.

Date/timePositionNaut miles runAvg speedWind from/ knotsBaromVisibWave heightAir tempDewpointWater temp
2016-May-27 02:09N 26°12' W 079°15'1118.4
2016-May-27 01:34N 26°06' W 079°25'1818.3
2016-May-27 00:34N 25°57' W 079°43'1818.3
2016-May-26 23:34N 25°48' W 080°01'9 9.0
2016-May-26 22:33N 25°47' W 080°11'1 0.5
2016-May-26 21:26N 25°47' W 080°10'0 0.0
2016-May-26 20:32N 25°47' W 080°10'0 0.0
2016-May-26 19:31N 25°47' W 080°10'0 0.0
2016-May-26 18:25N 25°47' W 080°10'0 0.0
2016-May-26 17:30N 25°47' W 080°10'0 0.0
2016-May-26 16:24N 25°47' W 080°10'0 0.0
2016-May-26 15:33N 25°47' W 080°10'0 0.0
2016-May-26 14:26N 25°47' W 080°10'0 0.0
2016-May-26 13:32N 25°47' W 080°10'0 0.0
2016-May-26 12:31N 25°47' W 080°10'0 0.0
2016-May-26 11:33N 25°47' W 080°10'3 3.0
2016-May-26 10:33N 25°46' W 080°07'6 5.6
2016-May-26 09:33N 25°47' W 080°01'1211.9
2016-May-26 08:33N 25°36' W 079°54'  
2016-May-22 04:33N 26°01' W 078°13'1918.8
2016-May-22 03:33N 26°07' W 078°33'1918.6
2016-May-22 02:32N 26°14' W 078°52'1717.2
2016-May-22 01:33N 26°14' W 079°11'1918.8
2016-May-22 00:33N 26°05' W 079°30'2019.8
2016-May-21 23:33N 25°55' W 079°48'1817.7
2016-May-21 22:34N 25°46' W 080°05'5 4.2
2016-May-21 21:26N 25°47' W 080°10'0 0.0
2016-May-21 20:31N 25°47' W 080°10'0 0.0
2016-May-21 19:22N 25°47' W 080°10'0 0.0
2016-May-21 18:19N 25°47' W 080°10'0 0.0
2016-May-21 17:27N 25°47' W 080°10'0 0.0
2016-May-21 16:33N 25°47' W 080°10'0 0.0
2016-May-21 15:32N 25°47' W 080°10'0 0.0
2016-May-21 14:23N 25°47' W 080°10'0 0.0
2016-May-21 13:10N 25°47' W 080°10'0 0.0
2016-May-21 12:25N 25°47' W 080°10'0 0.0
2016-May-21 11:31N 25°47' W 080°10'0 0.0
2016-May-21 10:34N 25°47' W 080°10'7 6.7
2016-May-21 09:33N 25°47' W 080°03'9 9.4
2016-May-21 08:33N 25°39' W 079°57'48514.6
2016-May-19 23:19N 20°40' W 086°53'1316.6
2016-May-19 22:33N 20°29' W 086°59'1 0.6
2016-May-19 21:32N 20°29' W 086°59'0 0.0
2016-May-19 20:32N 20°29' W 086°59'0 0.0
2016-May-19 19:32N 20°29' W 086°59'0 0.0
2016-May-19 18:31N 20°29' W 086°59'0 0.0
2016-May-19 17:31N 20°29' W 086°59'0 0.0
2016-May-19 16:33N 20°29' W 086°59'0 0.0
2016-May-19 15:34N 20°29' W 086°59'0 0.0
2016-May-19 14:34N 20°29' W 086°59'0 0.3
2016-May-19 13:33N 20°29' W 086°59'1010.1
2016-May-19 12:34N 20°38' W 086°54'  
Track history (hours):
 
Tides and Currents Weather Stations Pressure Air Temp Water Temp Dewpoint Dewpoint Depression Visibility Wind Speed Wind Dir Waves Ship Positions

Carnival Splendor

Last reported at 2016-May-27 02:09 UTC. Time now 2016-May-31 16:11 UTC.
Position N 26°12' W 079°15'.

Length 289 m; draft 8.3 m.

Type: Ship. MMSI: 372808000.

Date/timePositionNaut miles runAvg speedWind from/ knotsBaromVisibWave heightAir tempDewpointWater temp
2016-May-27 02:09N 26°12' W 079°15'1118.4
2016-May-27 01:34N 26°06' W 079°25'1818.3
2016-May-27 00:34N 25°57' W 079°43'1818.3
2016-May-26 23:34N 25°48' W 080°01'9 9.0
2016-May-26 22:33N 25°47' W 080°11'1 0.5
2016-May-26 21:26N 25°47' W 080°10'0 0.0
2016-May-26 20:32N 25°47' W 080°10'0 0.0
2016-May-26 19:31N 25°47' W 080°10'0 0.0
2016-May-26 18:25N 25°47' W 080°10'0 0.0
2016-May-26 17:30N 25°47' W 080°10'0 0.0
2016-May-26 16:24N 25°47' W 080°10'0 0.0
2016-May-26 15:33N 25°47' W 080°10'0 0.0
2016-May-26 14:26N 25°47' W 080°10'0 0.0
2016-May-26 13:32N 25°47' W 080°10'0 0.0
2016-May-26 12:31N 25°47' W 080°10'0 0.0
2016-May-26 11:33N 25°47' W 080°10'3 3.0
2016-May-26 10:33N 25°46' W 080°07'6 5.6
2016-May-26 09:33N 25°47' W 080°01'1211.9
2016-May-26 08:33N 25°36' W 079°54'  
2016-May-22 04:33N 26°01' W 078°13'1918.8
2016-May-22 03:33N 26°07' W 078°33'1918.6
2016-May-22 02:32N 26°14' W 078°52'1717.2
2016-May-22 01:33N 26°14' W 079°11'1918.8
2016-May-22 00:33N 26°05' W 079°30'2019.8
2016-May-21 23:33N 25°55' W 079°48'1817.7
2016-May-21 22:34N 25°46' W 080°05'5 4.2
2016-May-21 21:26N 25°47' W 080°10'0 0.0
2016-May-21 20:31N 25°47' W 080°10'0 0.0
2016-May-21 19:22N 25°47' W 080°10'0 0.0
2016-May-21 18:19N 25°47' W 080°10'0 0.0
2016-May-21 17:27N 25°47' W 080°10'0 0.0
2016-May-21 16:33N 25°47' W 080°10'0 0.0
2016-May-21 15:32N 25°47' W 080°10'0 0.0
2016-May-21 14:23N 25°47' W 080°10'0 0.0
2016-May-21 13:10N 25°47' W 080°10'0 0.0
2016-May-21 12:25N 25°47' W 080°10'0 0.0
2016-May-21 11:31N 25°47' W 080°10'0 0.0
2016-May-21 10:34N 25°47' W 080°10'7 6.7
2016-May-21 09:33N 25°47' W 080°03'9 9.4
2016-May-21 08:33N 25°39' W 079°57'48514.6
2016-May-19 23:19N 20°40' W 086°53'1316.6
2016-May-19 22:33N 20°29' W 086°59'1 0.6
2016-May-19 21:32N 20°29' W 086°59'0 0.0
2016-May-19 20:32N 20°29' W 086°59'0 0.0
2016-May-19 19:32N 20°29' W 086°59'0 0.0
2016-May-19 18:31N 20°29' W 086°59'0 0.0
2016-May-19 17:31N 20°29' W 086°59'0 0.0
2016-May-19 16:33N 20°29' W 086°59'0 0.0
2016-May-19 15:34N 20°29' W 086°59'0 0.0
2016-May-19 14:34N 20°29' W 086°59'0 0.3
2016-May-19 13:33N 20°29' W 086°59'1010.1
2016-May-19 12:34N 20°38' W 086°54'  

Dump ship's entire track history